Lid_Strength_Index
3 3 3 3 3 3 2 3 3 2 2 2 1 1 1 1 2 3 6 4 2 -0 1 5 6 7 7 8 8 9 13 15 13 12 10 6 8 6 5 7 6 5 6 4 2
4 4 4 4 3 3 3 3 4 3 2 2 2 2 1 1 3 5 2 -1 -1 -1 6 7 7 7 9 9 9 10 14 12 10 9 8 7 8 7 7 7 7 7 4 3 3
4 4 4 4 4 4 3 4 4 4 3 3 2 2 2 2 6 6 -1 -1 -1 -1 6 6 6 7 10 10 10 11 12 9 8 7 7 8 8 6 8 9 7 8 6 4 4
4 4 4 4 4 4 4 4 4 4 4 3 3 2 2 4 12 4 -1 -0 -0 4 6 6 7 11 11 12 9 11 8 8 8 7 7 8 7 8 7 7 5 5 4 4 5
4 4 4 4 4 4 4 4 4 4 4 4 3 2 4 7 7 3 -0 0 4 5 7 7 8 10 12 11 9 9 8 7 7 6 7 6 8 8 8 6 5 5 5 5 4
4 4 4 4 4 4 4 4 4 4 4 4 4 3 6 10 5 3 2 4 6 7 8 7 7 8 10 9 9 7 7 8 7 8 6 8 8 7 7 5 6 5 6 5 4
4 4 4 4 4 4 4 4 5 4 4 4 4 4 7 9 5 5 4 5 6 6 8 7 6 8 8 9 7 6 9 8 9 9 8 7 10 9 7 6 7 6 6 5 4
4 4 4 4 5 5 5 5 5 5 4 4 4 4 9 4 5 5 4 5 5 5 6 6 6 7 8 8 9 9 10 13 10 9 7 9 12 8 6 7 8 7 6 5 5
4 5 4 5 5 5 5 5 5 5 4 4 5 7 10 3 5 4 5 6 5 5 6 5 7 9 9 12 13 11 14 12 11 8 8 9 12 8 7 7 8 7 7 6 6
4 4 4 5 5 5 5 5 5 5 5 3 4 8 7 9 6 6 5 5 7 6 8 9 10 12 13 14 16 14 13 13 12 9 9 11 10 8 7 7 8 8 7 6 6
2 3 4 4 4 5 6 8 10 9 7 7 8 8 8 5 4 6 5 6 7 8 12 10 13 14 13 12 11 10 11 12 11 8 10 10 10 9 8 8 8 8 7 7 6
2 2 1 2 2 2 6 9 9 10 13 9 7 6 5 5 7 6 6 9 9 11 11 12 14 11 10 10 11 11 11 11 10 8 9 10 11 10 9 8 8 8 7 7 6
1 1 3 3 2 4 5 6 6 7 12 9 8 8 6 6 7 7 8 9 9 10 11 13 12 9 11 11 12 11 11 11 11 9 10 11 12 11 8 8 7 7 6 6 6
2 2 2 3 7 5 7 4 4 5 14 12 9 9 8 8 11 7 8 9 10 10 10 11 10 11 11 12 11 13 9 10 10 12 14 11 16 12 10 10 8 7 7 6 6
1 2 2 2 6 7 5 5 3 6 24 13 10 6 7 10 9 9 7 9 11 10 10 12 11 11 12 11 10 10 8 9 9 12 13 12 14 12 10 12 10 8 8 7 6
2 2 2 4 5 6 4 4 5 13 20 12 9 10 10 9 8 7 9 8 9 10 10 11 9 10 11 9 9 8 9 9 10 12 17 13 14 14 14 11 9 8 8 8 6
2 2 3 3 8 6 4 5 13 19 13 13 10 8 9 11 10 9 10 11 13 14 14 12 11 9 9 11 10 10 12 16 18 18 19 13 15 13 10 8 8 8 7 7 7
1 2 3 2 5 5 5 9 17 15 14 10 10 11 10 9 9 9 11 13 11 11 13 15 16 11 9 11 12 12 12 16 20 21 18 13 16 13 8 8 7 6 6 5 6
1 3 4 3 4 4 9 15 15 14 12 12 11 14 13 9 9 9 10 11 10 10 13 14 14 9 9 9 10 12 13 10 16 16 19 16 13 9 8 9 9 7 7 6 6
2 3 4 3 3 5 11 15 13 11 9 9 13 12 13 13 12 11 11 9 9 8 9 11 14 10 10 9 9 10 9 14 15 20 21 17 16 15 11 10 9 9 8 6 5
2 6 3 2 2 8 15 14 11 8 8 9 10 12 12 13 12 13 12 9 8 8 8 10 12 12 10 12 12 12 12 11 12 15 19 20 16 11 9 9 9 9 8 7 6
4 9 4 3 10 10 14 11 8 9 7 8 9 9 11 12 12 13 12 10 7 8 10 9 11 14 13 10 9 10 11 11 16 17 16 17 16 9 9 9 8 8 8 8 7
6 7 4 5 13 12 11 11 10 10 9 9 9 9 8 10 14 11 10 7 7 8 11 9 12 16 15 12 10 11 11 10 11 13 16 19 16 9 8 8 8 8 8 7 8
9 11 8 7 9 11 12 12 12 9 10 9 10 9 9 10 10 12 12 8 7 7 8 8 11 13 15 14 11 12 11 11 11 16 15 15 12 10 9 9 8 8 8 7 7
9 10 8 12 11 11 10 11 12 13 9 9 10 11 11 13 11 12 11 9 8 8 8 10 15 12 11 11 10 11 11 11 12 12 14 12 13 10 9 9 8 8 7 7 6
11 10 8 10 9 10 11 12 12 11 10 11 11 9 10 12 11 12 11 10 11 9 10 9 15 13 13 11 11 11 10 10 10 11 11 11 11 8 7 8 9 7 7 7 7
5 7 7 9 10 11 12 12 11 10 9 9 9 10 10 10 8 7 7 8 9 10 11 11 13 15 17 12 12 15 12 11 11 10 10 13 10 8 9 8 8 7 7 7 7